Regional Weather Roundup
Issued by NWS State College, PA

Home | Current Version | Previous Version | Graphics & Text | Print | Product List | Glossary Off
Versions: 1 2 3 4 5 6 7 8 9 10 11 12 13 14 15 16 17 18 19 20 21 22 23 24 25 26 27 28 29 30 31 32 33 34 35 36 37 38 39 40 41 42 43 44 45 46 47 48 49 50

000
ASUS41 KCTP 180810
RWRCTP

REGIONAL WEATHER ROUNDUP
NATIONAL WEATHER SERVICE STATE COLLEGE PA
300 AM EST SAT NOV 18 2017

Note: "fair" indicates few or no clouds below 12,000 feet with no
significant weather and/or obstructions to visibility.

* = STATION THAT DOES NOT REPORT PRECIPITATION /E.G. RAIN...SNOW...ETC/
    THUNDER OR FOG.

PAZ002>004-007>009-013>016-020>023-029>032-180900-
WESTERN PENNSYLVANIA

CITY           SKY/WX    TMP DP  RH WIND       PRES   REMARKS
ERIE           CLOUDY    44  26  49 S20       29.70F
MEADVILLE      CLOUDY    41  26  55 VRB6      29.74F
FRANKLIN*      CLOUDY    38  24  57 S10       29.77F
NEW CASTLE     CLOUDY    40  28  62 VRB3      29.78F
BEAVER COUNTY  NOT AVBL
BUTLER*        CLOUDY    39  25  57 SE5       29.80F
PITTSBURGH INT CLOUDY    39  28  64 SE6       29.78F
PITTSBURGH     CLOUDY    34  27  75 SE8       29.79F
INDIANA*       CLEAR     43  25  49 S8        29.87S
LATROBE        CLOUDY    30  27  86 CALM      29.83F
WASHINGTON CO* CLOUDY    44  24  45 S7        29.81F
$$

PAZ004>006-010>012-017>019-024>028-033>037-041-042-045-046-049>053-180900-
CENTRAL PENNSYLVANIA

CITY           SKY/WX    TMP DP  RH WIND       PRES   REMARKS
BRADFORD       CLOUDY    36  24  62 SE10      29.80F
DUBOIS         CLOUDY    35  23  61 SE8       29.83S
CLEARFIELD     CLOUDY    27  25  92 N7        29.88F
JOHNSTOWN      CLOUDY    33  24  69 SW6       29.85F
ALTOONA        CLOUDY    37  25  61 W5        29.90F
STATE COLLEGE  CLOUDY    29  24  81 CALM      29.91F
WILLIAMSPORT   CLOUDY    30  24  78 CALM      29.95F
SELINSGROVE    CLOUDY    28  27  96 CALM      29.97F
FT INDIANTOWN  CLOUDY    28  27  96 CALM      29.99F
CAPITAL CITY   CLOUDY    31  26  82 CALM      29.98F
HARRISBURG     PTCLDY    32  27  81 E5        29.98F
YORK           PTCLDY    27  25  92 SE3       29.98F
$$

PAZ038>040-043-044-047-048-054-055-060>062-067>071-180900-
EASTERN PENNSYLVANIA

CITY           SKY/WX    TMP DP  RH WIND       PRES   REMARKS
SCRANTON       PTCLDY    28  22  78 CALM      29.94F
MOUNT POCONO   CLEAR     26  19  74 CALM      29.93F
ALLENTOWN      PTCLDY    29  20  69 NE6       30.00F
QUAKERTOWN*    CLOUDY    25  23  93 CALM      30.00F
READING        PTCLDY    30  28  92 CALM      30.00F
LANCASTER      CLOUDY    30  28  92 CALM      30.00F
COATESVILLE    CLOUDY    36  25  64 S3        30.01F
POTTSTOWN      CLOUDY    27  23  85 CALM      30.02F
BLUE BELL      CLEAR     27  25  93 CALM      30.02F
DOYLESTOWN     CLOUDY    27  23  85 CALM      29.99F
WILLOW GROVE   NOT AVBL
NORTH PHILA    CLOUDY    32  25  75 SE5       30.03F
PHILADELPHIA   CLOUDY    36  31  82 SE5       30.03F
$$




USA.gov is the U.S. government's official web portal to all federal, state and local government web resources and services.